Flag for Canada Weather past 2 weeks in Glace Bay, Nova Scotia, Canada

Now
30 °F

Overcast.


Feels Like: 24 °F
Forecast: N/A
Wind: 6 mph from North

Location: Sydney

Current Time: Dec 21, 2014 at 6:01:39 PM

Latest Report: Dec 21, 2014 at 5:00 PM


Visibility: 15 mi

Pressure: 30.37 "Hg

Humidity: 75%

Dew point: 23 °F

Location of Glace BayLocation

Historic Weather in Glace Bay — Graph

°F

Glace Bay temperature yesterday

Maximum temperature yesterday: 36 °F (at 10:00 AM)
Minimum temperature yesterday: 32 °F (at 6:00 PM)
Average temperature yesterday: 33 °F

Past Weeks' High & Low Weather Summary

 TemperatureHumidityPressure
High50 °F (Dec 11, 2:46 PM)100% (Dec 6, 9:00 PM)30.81 "Hg (Dec 6, 9:00 PM)
Low10 °F (Dec 9, 1:00 AM)58% (Dec 7, 8:00 PM)29.40 "Hg (Dec 19, 1:00 AM)
Average36 °F90%30.01 "Hg
* Reported Dec 6 5:00 PM — Dec 21 5:00 PM, Glace Bay, Weather by CustomWeather, © 2014

Note: Actual official high and low records may vary slightly from our data, if they occured in-between our weather recording intervals... More about our weather records

Advertising

Glace Bay weather history for previous 24 hours

 ConditionsComfort  
Time TempWeatherWind HumidityBarometerVisibility
5:00 PM
Dec 21
30 °FOvercast.6 mph75%30.37 "Hg15 mi
4:00 PM30 °FOvercast.9 mph75%30.36 "Hg15 mi
3:00 PM30 °FOvercast.9 mph75%30.35 "Hg15 mi
2:00 PM30 °FOvercast.7 mph75%30.34 "Hg15 mi
1:00 PM30 °FOvercast.7 mph69%30.34 "Hg15 mi
12:00 PM30 °FOvercast.10 mph75%30.35 "Hg15 mi
11:00 AM30 °FOvercast.8 mph75%30.36 "Hg15 mi
10:00 AM30 °FOvercast.7 mph75%30.37 "Hg15 mi
9:00 AM30 °FOvercast.8 mph75%30.36 "Hg15 mi
8:00 AM30 °FOvercast.9 mph75%30.35 "Hg15 mi
7:00 AM30 °FOvercast.7 mph69%30.34 "Hg15 mi
6:00 AM30 °FOvercast.5 mph75%30.32 "Hg15 mi
5:00 AM30 °FOvercast.7 mph75%30.32 "Hg15 mi
4:00 AM30 °FOvercast.5 mph75%30.31 "Hg15 mi
3:00 AM30 °FOvercast.8 mph75%30.31 "Hg15 mi
2:00 AM30 °FOvercast.8 mph75%30.30 "Hg15 mi
1:00 AM30 °FOvercast.7 mph75%30.29 "Hg15 mi
12:00 AM32 °FOvercast.10 mph69%30.29 "Hg15 mi
11:00 PM
Dec 20
32 °FOvercast.7 mph69%30.29 "Hg15 mi
10:00 PM32 °FOvercast.12 mph75%30.29 "Hg15 mi
9:00 PM32 °FOvercast.10 mph75%30.29 "Hg15 mi
8:00 PM32 °FOvercast.9 mph80%30.28 "Hg15 mi
7:00 PM32 °FSnow flurries. Passing clouds.10 mph87%30.27 "Hg10 mi
6:57 PM32 °FSnow flurries. Passing clouds.8 mph87%30.27 "Hg8 mi
6:00 PM32 °FPassing clouds.13 mph87%30.26 "Hg15 mi
Weather by CustomWeather, © 2014

See weather overviewHow to use our weather pages